Overview Statistics Trail Chart Weather Telemetry Raw packets
 

This is the latest recevied weather packets stored in our database for station/object W7BTL. If no packets are shown the sender has not sent any weather packets the latest 10 day(s).

<< 75 76 77 78 79 80 81 >>
Time Temp. Humidity Pressure Rain* Wind** Luminosity Snow
1788112609 30.56° C 53% 1011.8 hPa 0 mm - 828 W/m² -
1788112305 30.56° C 51% 1011.9 hPa 0 mm - 813 W/m² -
1788112000 30° C 54% 1011.7 hPa 0 mm - 801 W/m² -
1788111696 30° C 55% 1012.1 hPa 0 mm - 783 W/m² -
1788111396 30° C 53% 1011.7 hPa 0 mm - 769 W/m² -
1788111091 30° C 54% 1011.9 hPa 0 mm - 753 W/m² -
1788110788 29.44° C 56% 1011.9 hPa 0 mm - 731 W/m² -
1788110484 29.44° C 58% 1012 hPa 0 mm - 718 W/m² -
1788110184 28.89° C 59% 1012 hPa 0 mm - 700 W/m² -
1788109879 29.44° C 56% 1012 hPa 0 mm - 683 W/m² -
1788109575 28.89° C 59% 1011.8 hPa 0 mm - 661 W/m² -
1788109274 28.89° C 56% 1011.9 hPa 0 mm - 647 W/m² -
1788108974 28.33° C 58% 1011.9 hPa 0 mm - 624 W/m² -
1788108680 28.89° C 58% 1012 hPa 0 mm - 605 W/m² -
1788108366 28.33° C 60% 1011.9 hPa 0 mm - 586 W/m² -
1788108061 28.89° C 61% 1012.1 hPa 0 mm - 561 W/m² -
1788107758 28.33° C 60% 1011.9 hPa 0 mm - 539 W/m² -
1788107458 27.78° C 62% 1012.1 hPa 0 mm - 506 W/m² -
1788107154 27.78° C 60% 1011.9 hPa 0 mm - 497 W/m² -
1788106849 27.78° C 63% 1011.9 hPa 0 mm - 469 W/m² -
1788106548 27.22° C 64% 1011.9 hPa 0 mm - 444 W/m² -
1788106244 27.78° C 64% 1011.8 hPa 0 mm - 428 W/m² -
1788105940 27.78° C 62% 1011.9 hPa 0 mm - 404 W/m² -
1788105635 27.22° C 64% 1011.8 hPa 0 mm - 376 W/m² -
1788105331 27.78° C 65% 1011.9 hPa 0 mm - 362 W/m² -

* Rain latest hour (hover to see other rain measurements)
** Current wind speed in m/s (hover to see current wind gust speed)